Beaumont / Port Arthur, TX

1:07 PM CDT on July 28, 2017 (GMT -0500)
Beaumont Municipal

Weather History for KBMT - November, 2013

Change the Weather History Date:

Saturday, November 2, 2013

  Actual Average (KBPT) Record (KBPT)
Temperature  
Mean Temperature 60 °F -  
Max Temperature 71 °F 74 °F 88 °F (1927)
Min Temperature 50 °F 53 °F 31 °F (1951)
Degree Days  
Heating Degree Days 4    
Growing Degree Days 10 (Base 50)    
Moisture  
Dew Point 50 °F    
Average Humidity 72    
Maximum Humidity 100    
Minimum Humidity 28    
Precipitation  
Precipitation 0.00 in - - ()
Sea Level Pressure  
Sea Level Pressure 30.12 in    
Wind  
Wind Speed 6 mph (North)    
Max Wind Speed 18 mph    
Max Gust Speed 25 mph    
Visibility 10 miles    
Events      
Averages and records for this station are not official NWS values.
T = Trace of Precipitation, MM = Missing Value Source: NWS Daily Summary

Daily Weather History Graph

Daily Weather History Graph

Search for Another Location

Airport or City:

Trip Planner

Search our weather history database for the weather conditions in past years. The results will help you decide how hot, cold, wet, or windy it might be!

Date:

Astronomy

Nov. 02, 2013 Rise Set
Actual Time 7:31 AM CDT 6:28 PM CDT
Civil Twilight 7:07 AM CDT 6:53 PM CDT
Nautical Twilight 6:38 AM CDT 7:21 PM CDT
Astronomical Twilight 6:10 AM CDT 7:49 PM CDT
Moon 6:33 AM CDT (11/2) 5:59 PM CDT (11/2)
Length of Visible Light 11h 46m
Length of Day
10h 56m
Waning Crescent, 1% of the Moon is Illuminated
Nov 2
Waning Crescent
Nov 3
New
Nov 9
First Quarter
Nov 17
Full
Nov 25
Last Quarter

Hourly Weather History & Observations

Time (CDT) Temp. Dew Point Humidity Pressure Visibility Wind Dir Wind Speed Gust Speed Precip Events Conditions
12:15 AM 63.5 °F 63.5 °F 100% 29.94 in 10.0 mi North - - N/A   Overcast
12:35 AM 62.8 °F 62.8 °F 100% 29.94 in 10.0 mi Calm Calm - N/A   Overcast
12:55 AM 61.7 °F 61.7 °F 100% 29.94 in 10.0 mi Calm Calm - N/A   Scattered Clouds
1:15 AM 60.4 °F 60.4 °F 100% 29.95 in 10.0 mi Calm Calm - N/A   Clear
1:35 AM 60.1 °F 60.1 °F 100% 29.95 in 10.0 mi Calm Calm - N/A   Clear
1:55 AM 59.9 °F 59.9 °F 100% 29.97 in 10.0 mi NNW 5.8 mph - N/A   Clear
2:15 AM 62.2 °F 62.2 °F 100% 29.98 in 10.0 mi NNE 9.2 mph - N/A   Mostly Cloudy
2:35 AM 61.3 °F 61.3 °F 100% 29.98 in 10.0 mi NE 4.6 mph - N/A   Mostly Cloudy
2:55 AM 61.0 °F 60.6 °F 99% 29.99 in 10.0 mi NNE 8.1 mph - N/A   Clear
3:15 AM 60.6 °F 60.4 °F 99% 30.00 in 10.0 mi NNE 5.8 mph - N/A   Clear
3:35 AM 60.4 °F 60.3 °F 99% 30.01 in 10.0 mi NNE 5.8 mph - N/A   Scattered Clouds
3:55 AM 60.8 °F 59.9 °F 97% 30.01 in 10.0 mi ENE 4.6 mph - N/A   Clear
4:15 AM 59.4 °F 59.2 °F 99% 30.02 in 10.0 mi NNW 8.1 mph - N/A   Clear
4:35 AM 59.5 °F 59.5 °F 100% 30.04 in 10.0 mi NW 6.9 mph - N/A   Clear
4:55 AM 59.0 °F 59.0 °F 100% 30.05 in 10.0 mi NW 6.9 mph - N/A   Clear
5:15 AM 58.5 °F 58.5 °F 100% 30.06 in 10.0 mi NNW 6.9 mph - N/A   Clear
5:35 AM 58.3 °F 58.3 °F 100% 30.07 in 10.0 mi NNW 5.8 mph - N/A   Clear
5:55 AM 57.9 °F 57.9 °F 100% 30.08 in 10.0 mi NNW 6.9 mph - N/A   Clear
6:15 AM 57.7 °F 57.7 °F 100% 30.09 in 10.0 mi NNW 9.2 mph - N/A   Clear
6:35 AM 57.9 °F 57.0 °F 97% 30.10 in 10.0 mi North 9.2 mph - N/A   Clear
6:55 AM 57.2 °F 56.3 °F 97% 30.10 in 10.0 mi NNW 8.1 mph - N/A   Clear
7:15 AM 56.3 °F 55.8 °F 98% 30.11 in 10.0 mi NNW 8.1 mph - N/A   Clear
7:35 AM 55.6 °F 55.4 °F 99% 30.12 in 10.0 mi NNW 8.1 mph - N/A   Clear
7:55 AM 55.6 °F 54.9 °F 97% 30.13 in 10.0 mi NNW 10.4 mph - N/A   Clear
8:15 AM 56.3 °F 54.5 °F 94% 30.14 in 10.0 mi NNW 8.1 mph - N/A   Clear
8:35 AM 57.0 °F 53.6 °F 88% 30.14 in 10.0 mi NNW 8.1 mph - N/A   Clear
8:55 AM 58.1 °F 52.7 °F 82% 30.15 in 10.0 mi NNW 9.2 mph - N/A   Clear
9:15 AM 59.0 °F 52.7 °F 80% 30.16 in 10.0 mi NNW 10.4 mph - N/A   Clear
9:35 AM 59.9 °F 51.3 °F 73% 30.17 in 10.0 mi North 13.8 mph - N/A   Clear
9:55 AM 61.2 °F 51.4 °F 70% 30.18 in 10.0 mi North 10.4 mph - N/A   Clear
10:15 AM 63.5 °F 49.8 °F 61% 30.18 in 10.0 mi North 11.5 mph - N/A   Clear
10:35 AM 65.1 °F 47.3 °F 52% 30.18 in 10.0 mi North 13.8 mph 19.6 mph N/A   Clear
10:55 AM 65.7 °F 45.9 °F 49% 30.19 in 10.0 mi NNE 15.0 mph 19.6 mph N/A   Clear
12:15 PM 69.1 °F 42.4 °F 38% 30.18 in 10.0 mi North 15.0 mph 21.9 mph N/A   Clear
12:35 PM 69.8 °F 43.0 °F 38% 30.18 in 10.0 mi North 15.0 mph 19.6 mph N/A   Clear
12:55 PM 70.3 °F 42.1 °F 36% 30.18 in 10.0 mi North 18.4 mph 24.2 mph N/A   Clear
1:15 PM 70.7 °F 40.6 °F 34% 30.17 in 10.0 mi North 17.3 mph 23.0 mph N/A   Clear
1:35 PM 71.6 °F 41.7 °F 34% 30.15 in 10.0 mi North 13.8 mph 21.9 mph N/A   Clear
1:55 PM 71.1 °F 41.2 °F 34% 30.14 in 10.0 mi North 16.1 mph 23.0 mph N/A   Clear
2:15 PM 71.2 °F 40.6 °F 33% 30.13 in 10.0 mi North 16.1 mph 24.2 mph N/A   Clear
2:35 PM 71.6 °F 38.1 °F 30% 30.13 in 10.0 mi North 16.1 mph 23.0 mph N/A   Clear
2:55 PM 71.8 °F 39.2 °F 31% 30.12 in 10.0 mi North 17.3 mph 25.3 mph N/A   Clear
3:15 PM 71.6 °F 39.6 °F 31% 30.12 in 10.0 mi North 16.1 mph 20.7 mph N/A   Clear
3:35 PM 71.1 °F 38.3 °F 30% 30.12 in 10.0 mi NNW 15.0 mph 23.0 mph N/A   Clear
3:55 PM 70.9 °F 37.6 °F 30% 30.11 in 10.0 mi North 16.1 mph 21.9 mph N/A   Clear
4:15 PM 70.9 °F 37.9 °F 30% 30.11 in 10.0 mi NNW 11.5 mph - N/A   Clear
4:35 PM 70.3 °F 36.0 °F 28% 30.11 in 10.0 mi North 11.5 mph 19.6 mph N/A   Clear
4:55 PM 69.8 °F 35.6 °F 28% 30.12 in 10.0 mi North 12.7 mph - N/A   Clear
5:15 PM 69.3 °F 35.1 °F 28% 30.12 in 10.0 mi North 9.2 mph - N/A   Clear
5:35 PM 68.2 °F 38.1 °F 33% 30.13 in 10.0 mi NNW 8.1 mph - N/A   Clear
5:55 PM 66.6 °F 37.8 °F 35% 30.13 in 10.0 mi NNW 8.1 mph - N/A   Clear
6:15 PM 64.0 °F 39.9 °F 41% 30.14 in 10.0 mi NNW 5.8 mph - N/A   Clear
6:35 PM 60.1 °F 44.2 °F 56% 30.15 in 10.0 mi NNW 4.6 mph - N/A   Clear
6:55 PM 58.3 °F 46.4 °F 65% 30.15 in 10.0 mi Calm Calm - N/A   Clear
7:15 PM 55.2 °F 49.6 °F 81% 30.16 in 10.0 mi Calm Calm - N/A   Clear
7:35 PM 53.6 °F 48.2 °F 82% 30.18 in 10.0 mi WNW 3.5 mph - N/A   Clear
7:55 PM 53.8 °F 48.6 °F 82% 30.18 in 10.0 mi NW 3.5 mph - N/A   Clear
8:15 PM 54.3 °F 48.7 °F 81% 30.19 in 10.0 mi Calm Calm - N/A   Clear
8:35 PM 53.6 °F 49.1 °F 85% 30.19 in 10.0 mi Calm Calm - N/A   Clear
8:55 PM 52.7 °F 48.0 °F 84% 30.20 in 10.0 mi North 3.5 mph - N/A   Clear
9:15 PM 54.3 °F 46.8 °F 76% 30.20 in 10.0 mi North 3.5 mph - N/A   Clear
9:35 PM 52.7 °F 47.1 °F 81% 30.21 in 10.0 mi Calm Calm - N/A   Clear
9:55 PM 52.5 °F 47.3 °F 82% 30.21 in 10.0 mi Calm Calm - N/A   Clear
10:15 PM 51.6 °F 46.6 °F 83% 30.22 in 10.0 mi North 3.5 mph - N/A   Clear
10:35 PM 51.8 °F 45.7 °F 80% 30.23 in 10.0 mi NNW 3.5 mph - N/A   Clear
10:55 PM 50.9 °F 45.5 °F 82% 30.23 in 10.0 mi North 3.5 mph - N/A   Clear
11:15 PM 51.4 °F 44.8 °F 78% 30.23 in 10.0 mi Calm Calm - N/A   Clear
11:35 PM 51.3 °F 45.0 °F 79% 30.23 in 10.0 mi Calm Calm - N/A   Clear
11:55 PM 50.9 °F 44.4 °F 78% 30.22 in 10.0 mi North 3.5 mph - N/A   Clear